Fort Wayne Police Department
Fort Wayne Police Department
Emergencies Call: 911
Non-Emergencies: (260) 427-1222
report drug house

Daily Activity Logs

Activity Log for October 1, 2013 Community Search

Incident Time Nature Address
13F143974 00:02:30 43 DISTURBANCE 3500 ACADEMIC PL
13F143975 00:04:26 50 BURGLARY 400 FAIRWICK LN
13F143976 00:04:52 44LM 800 WASHINGTON BLVD W
13F143977 00:14:27 15 ASSIST 2100 SHERMAN BLVD
13F143978 00:18:13 30 TRAFFIC STOP 4300 LILLIE ST
13F143980 00:23:43 26PP PINNED 30900 I 69 SB
13F143979 00:24:23 46,96 1200 JEFFERSON BLVD W
13F143981 00:24:38 48 SUSPICIOUS 7400 ST JOE RD
13F143985 00:34:29 103 UNWANTED 2900 GOSHEN RD
13F143982 00:35:32 30 TRAFFIC STOP 1400 WILDWOOD AVE W & THOMPSON AVE
13F143983 00:37:13 16V PICKUP VID 00 MAIN ST E
13F143984 00:37:40 96IP 5100 CORONET CT
13F143986 00:45:01 63 CONTACT 800 COLISEUM BLVD N
13F143987 00:48:48 33,34 2000 COLISEUM BLVD N & FOREST AVE
13F143988 00:54:40 113 SHOTS FIRED 2100 HARRISON ST S & DEWALD ST W
13F143989 01:02:25 911 HANG UP 2100 STATE BLVD W
13F143990 01:03:49 40A AUDIBLE 4000 JEFFERSON BLVD W
13F143991 01:05:35 15 ASSIST 2900 BROADWAY
13F143992 01:06:30 911 HANG UP 2200 REED ST
13F143993 01:09:55 27 RECKLESS DRI 1500 HILLEGAS RD & BASS RD
13F143995 01:23:55 911 HANG UP 900 WALTER ST
13F143996 01:24:44 44LM 1700 WAYNE ST E
13F143994 01:24:46 48 SUSPICIOUS 3700 SHADY CT
13F143997 01:32:10 48 SUSPICIOUS 2700 ALMA AVE
13F143998 01:54:14 40A AUDIBLE 2700 COVINGTON RD
13F143999 02:00:42 15 ASSIST 300 MASTERSON AVE E
13F144000 02:10:33 96IP 1100 COTTAGE AVE
13F144001 02:12:03 40 ALARM 6300 CROSS CREEK BLVD
13F144002 02:14:30 15 ASSIST 1800 HOWELL ST
13F144003 02:21:38 48 SUSPICIOUS 3100 WINTER ST
13F144004 02:27:14 48 SUSPICIOUS 6200 PRESTWICK RUN
13F144005 02:29:19 30 TRAFFIC STOP 2100 WAWONAISSA TRL
13F144006 02:49:28 63 CONTACT 1000 HAMILTON AVE
13F144007 02:54:41 46 DOMESTIC 1300 TAYLOR ST
13F144008 02:56:40 129 2400 BUCKHURST RUN
13F144009 02:56:49 129 2400 BUCKHURST RUN
13F144010 03:03:00 48 SUSPICIOUS 6100 ARAGON DR
13F144011 03:15:58 129 7300 DECATUR RD
13F144012 03:16:12 129 7300 DECATUR RD
13F144018 03:18:34 14 WARRANT 800 THIRD ST
13F144013 03:18:38 14 WARRANT 2700 PAULDING RD E
13F144016 03:19:52 42 INTOX PERSON 800 STATE BLVD W & SHERMAN BLVD
13F144014 03:24:10 43 DISTURBANCE 1000 HOME AVE
13F144015 03:24:28 911 HANG UP 1100 MCCULLOCH ST
13F144017 03:28:42 20 PROBLEM UNK 2000 HERITAGE PARK DR
13F144019 03:36:52 48 SUSPICIOUS 7900 JEFFERSON BLVD W
13F144021 03:52:58 96 BATTERY 2200 RANDALLIA DR
13F144020 03:55:30 103 UNWANTED 3500 WAYNE TRACE
13F144022 04:02:01 43 DISTURBANCE 6500 COVINGTON RD
13F144023 04:16:26 33,34 800 COLISEUM BLVD E & CLINTON ST N
13F144024 04:31:06 43 DISTURBANCE 6500 COVINGTON RD
13F144025 04:39:50 16V PICKUP VID 00 MAIN ST E
13F144026 04:54:19 40A AUDIBLE 6200 LIMA RD
13F144027 04:56:50 16V PICKUP VID 00 MAIN ST E
13F144028 05:20:25 40A AUDIBLE 200 MAIN ST E
13F144029 05:22:53 911 HANG UP 1400 WALLACE ST E
13F144030 05:27:17 46 DOMESTIC 800 TENNESSEE AVE
13F144034 05:28:50 46 DOMESTIC 1200 ONEIDA ST
13F144031 05:42:00 46 DOMESTIC 100 COUNTRY FOREST DR
13F144032 05:59:54 43 DISTURBANCE 4300 BEAVER AVE
13F144033 06:00:36 911 HANG UP 6900 BLAKE DR
13F144035 06:14:46 30 TRAFFIC STOP 8100 LIMA RD & NORTHLAND BLVD
13F144036 06:19:44 16V PICKUP VID 00 MAIN ST E
13F144037 06:19:46 16V PICKUP VID 00 MAIN ST E
13F144041 06:39:59 46 DOMESTIC 7000 BLUFFTON RD
13F144038 06:40:42 40A AUDIBLE 6300 CROSS CREEK BLVD
13F144039 06:40:45 39 STOLEN VEHIC 6100 HESSEN CASSEL RD
13F144040 06:42:51 16V PICKUP VID 00 MAIN ST E
13F144042 06:48:09 51JO 2400 COLISEUM BLVD N
13F144043 06:51:19 40 ALARM 2800 COVINGTON RD
13F144044 06:57:47 40A AUDIBLE 5200 INDUSTRIAL RD
13F144045 06:58:39 34 TRAFF HAZARD 30900 I 69 SB & US 30 W
13F144046 07:00:40 43 DISTURBANCE 3800 CALHOUN ST S & RUDISILL BLVD
13F144047 07:04:57 51,35 11300 GONGWER DR
13F144048 07:06:50 911 HANG UP 1700 HIGH ST
13F144092 07:08:53 27 RECKLESS DRI 1200 GETZ RD & ILLINOIS RD
13F144049 07:13:07 26PP PINNED 9000 ILLINOIS RD
13F144050 07:16:12 48 SUSPICIOUS 7600 MILL RUN DR
13F144053 07:25:31 50,ATTEMPTED 7000 BRADFORD DR
13F144051 07:26:09 65A SUICIDE ATT 7100 TANBARK LN
13F144052 07:27:53 37 PARKING VIOL 6200 ST JOE RD
13F144054 07:30:36 25 PD ACCIDENT 400 STATE BLVD E
13F144055 07:31:55 26 PI ACCIDENT 3500 STATE BLVD E & LAVERNE AVE
13F144056 07:35:15 22I JUV INVEST 100 WILDWOOD AVE W & HARRISON ST S
13F144057 07:47:32 99 NARCOTICS 3700 CENTRAL DR
13F144058 07:53:32 63 CONTACT 2700 CLINTON ST S
13F144059 07:54:08 48,36 2900 KOONS ST
13F144060 07:59:03 25 PD ACCIDENT 300 WASHINGTON BLVD E & LAFAYETTE
13F144061 07:59:32 18 WORK TRAFFIC 900 CLINTON ST S & WASHINGTON BLVD
13F144064 08:03:26 1 MEET 1700 BEACON ST
13F144062 08:12:04 EMS 8400 RAMSHIRE LN
13F144065 08:31:10 43 DISTURBANCE 900 LIBRARY PLAZA
13F144066 08:32:37 25 PD ACCIDENT 500 WASHINGTON BLVD E & MONROE ST
13F144068 08:34:28 63 CONTACT 1000 SAVILLA AVE
13F144067 08:35:09 25 PD ACCIDENT 3500 COLISEUM BLVD W
13F144070 08:37:34 EMS 100 BAKER ST W
13F144069 08:40:32 25 PD ACCIDENT 11200 COLDWATER RD
13F144072 08:43:23 911 HANG UP 8300 LAKESIDE DR
13F144071 08:44:13 51 THEFT 4500 DOENGES DR
13F144073 08:47:44 22I JUV INVEST 2300 FAIRFIELD AVE & PIERCE AVE
13F144074 08:51:42 43 DISTURBANCE 1200 ROOSEVELT DR
13F144076 08:59:37 41,36 2800 STATE BLVD E
13F144075 09:00:01 22I JUV INVEST 3600 CALHOUN ST S
13F144077 09:00:35 18 WORK TRAFFIC 900 CLINTON ST S & WASHINGTON BLVD
13F144078 09:00:47 43 DISTURBANCE 1400 RABUS DR
13F144079 09:06:27 19 ESCORT 2400 COLISEUM BLVD S & RAYMOND AVE
13F144080 09:06:38 16V PICKUP VID 00 MAIN ST E
13F144081 09:16:57 30 TRAFFIC STOP 3600 BARR ST S & OAKDALE DR E
13F144082 09:17:59 25 PD ACCIDENT 31100 I 69 SB
13F144084 09:18:51 56 MOLESTING 1200 SUMMIT ST
13F144083 09:20:47 51 THEFT 6000 TREASURE CV
13F144085 09:24:27 48,35 2700 COLISEUM BLVD S
13F144086 09:24:51 40A AUDIBLE 1600 SYCAMORE HILLS PKWY
13F144087 09:27:19 43 DISTURBANCE 3200 CLINTON CT
13F144088 09:34:54 57 STRONG ARM 4500 BOWSER AVE
13F144090 09:34:55 911 HANG UP 1500 MAGNOLIA LN
13F144089 09:38:08 30 TRAFFIC STOP 7400 JEFFERSON BLVD W
13F144091 09:38:37 23 VANDALISM 2600 STATE BLVD W
13F144093 09:42:27 48,35 800 ARDIS DR
13F144094 09:43:42 11C CAGE CAR 7500 SOUTHTOWN XING
13F144095 09:48:04 911 HANG UP 4000 SOUTHWAYNE AVE
13F144097 09:52:16 73 WALK AWAY 3600 HARRIS RD
13F144096 09:52:33 911 HANG UP 4700 ILLINOIS RD
13F144114 10:01:22 51 THEFT 700 WAGNER ST
13F144098 10:04:17 38 LOST/STOLEN 2900 GOSHEN RD
13F144099 10:04:52 43 DISTURBANCE 9100 WINCHESTER RD
13F144100 10:06:11 25 PD ACCIDENT 3500 HOBSON RD & COLISEUM BLVD E
13F144101 10:13:46 51 THEFT 6700 ANGELLO CT
13F144102 10:14:18 911 HANG UP 2000 FOX AVE
13F144103 10:17:27 41,36 5400 COLDWATER RD
13F144104 10:22:41 40 ALARM 200 DEWALD ST E
13F144107 10:22:58 15 ASSIST 7900 JEFFERSON BLVD W
13F144105 10:23:55 48 SUSPICIOUS 1100 FRANCIS ST & LEWIS ST E
13F144106 10:25:03 23 VANDALISM 2600 STATE BLVD W
13F144108 10:32:01 102 THREATS 1000 COOK RD E
13F144109 10:37:22 50IP BURG I/P 900 GRACE AVE
13F144110 10:39:40 43 DISTURBANCE 10200 ILLINOIS RD
13F144119 10:45:36 44LM 200 LEITH ST W
13F144111 10:49:46 46,96 1300 GREENE ST
13F144112 10:53:22 TOW 4700 STELLHORN RD
13F144113 10:59:06 55 FIGHT 2100 LAKE AVE
13F144116 11:03:29 43 DISTURBANCE 2000 CALHOUN ST S
13F144115 11:04:13 48 SUSPICIOUS 1400 CLINTON ST N & FOURTH ST E
13F144117 11:10:00 39 STOLEN VEHIC 3800 FERGUSON RD W
13F144118 11:10:24 25,86 4000 HESSEN CASSEL RD
13F144120 11:18:35 23 VANDALISM 2600 STATE BLVD W
13F144122 11:19:11 911 HANG UP 400 MAIN ST E
13F144121 11:19:29 51,35 4000 WAYNE TRACE
13F144123 11:20:29 108 FOLLOWUP 00 MAIN ST E
13F144124 11:21:07 30 TRAFFIC STOP 400 JEFFERSON BLVD E & CLAY ST
13F144126 11:21:28 37 PARKING VIOL 5400 THORNBRIAR LN
13F144125 11:21:47 17 MOTOR CHECK 6700 OLD TRAIL RD
13F144127 11:25:53 911 HANG UP 300 BERRY ST E
13F144128 11:31:34 911 HANG UP 600 HARRISON ST S & MAIN ST W
13F144129 11:35:47 30 TRAFFIC STOP 500 CALHOUN ST S & COLUMBIA ST W
13F144131 11:39:05 17 MOTOR CHECK 2200 FAIRFIELD AVE
13F144134 11:39:46 39R STOLEN RECO 1200 FAIRFIELD AVE & BRACKENRIDGE
13F144130 11:40:09 48 SUSPICIOUS 400 COLUMBIA ST E & COLUMBIA AVE
13F144133 11:40:18 40A AUDIBLE 2800 LYKEWAY CT
13F144132 11:41:00 46,96 3200 DIPLOMAT DR
13F144135 11:54:43 43 DISTURBANCE 500 COLISEUM BLVD E
13F144138 11:55:31 66 MENTALLY ILL 00 MAIN ST E
13F144136 11:55:54 46 DOMESTIC 1300 GREENE ST
13F144137 11:56:44 17 MOTOR CHECK 3400 BROADWAY
13F144139 12:02:20 14 WARRANT 3300 MAUMEE AVE
13F144144 12:03:14 34 TRAFF HAZARD 3800 SMITH ST & RUDISILL BLVD E
13F144140 12:04:00 30 TRAFFIC STOP 300 COLISEUM BLVD E & COLDWATER RD
13F144141 12:06:19 34 TRAFF HAZARD 31000 I 69 NB
13F144151 12:09:31 25HS HIT SKIP 1400 GRANT AVE
13F144143 12:11:42 43 DISTURBANCE 1700 BEACON ST
13F144142 12:11:50 HARASSMENT 500 INCENTIVE DR
13F144159 12:20:18 63 CONTACT 3900 WEBSTER ST
13F144145 12:20:51 33,34 31000 I 69 NB
13F144146 12:22:43 103 UNWANTED 3400 DIPLOMAT DR
13F144147 12:23:44 102 THREATS 00 MAIN ST E
13F144148 12:29:04 30 TRAFFIC STOP 4300 LIMA RD & COLISEUM BLVD W
13F144150 12:29:50 911 HANG UP 3300 HARRISON ST S
13F144149 12:30:21 50,ATTEMPTED 2500 MARCY LN
13F144153 12:32:28 51JO 2700 PAULDING RD E
13F144152 12:32:43 16V PICKUP VID 00 MAIN ST E
13F144154 12:37:45 23,35 VAND VEH 1200 SCOTT AVE
13F144155 12:38:08 30 TRAFFIC STOP 3700 FAIRFIELD AVE & ENGLEWOOD CT
13F144156 12:44:53 911 HANG UP 4000 MCCLURE CT
13F144158 12:46:29 33J LOCKED OUT 900 LIBRARY PLAZA
13F144157 12:46:38 65T SUICIDE THR 3600 CALHOUN ST S
13F144160 12:54:55 46 DOMESTIC 3300 CEDAR RUN
13F144178 12:57:06 16,97 6000 HIGHVIEW DR
13F144161 12:57:25 EMS 900 LAKE AVE
13F144164 13:00:28 39 STOLEN VEHIC 3100 LILLIE ST
13F144162 13:02:50 22I JUV INVEST 3600 CALHOUN ST S
13F144163 13:08:26 40I INTRUSION 1300 MCCULLOCH ST
13F144165 13:08:44 11C CAGE CAR 10400 MAYSVILLE RD
13F144166 13:08:54 39 STOLEN VEHIC 3900 CLINTON ST N
13F144167 13:15:58 40H HOLDUP ALRM 6000 LIMA RD
13F144168 13:16:51 101 OPEN DOOR 2400 OLIVER ST
13F144169 13:18:31 23,35 VAND VEH 3300 ROCKWOOD DR
13F144170 13:21:36 96 BATTERY 9100 WINCHESTER RD
13F144179 13:22:00 11C CAGE CAR 4200 COLDWATER RD
13F144171 13:32:50 46,96 700 PAULDING RD E & DECATUR RD
13F144172 13:37:01 103 UNWANTED 4900 BLUFFTON RD
13F144173 13:39:23 911 HANG UP 500 OAKFIELD DR
13F144196 13:41:25 50 BURGLARY 1800 HOBSON RD
13F144174 13:42:20 83 INFO REPORT 3300 FELICIAN ST
13F144175 13:43:01 48 SUSPICIOUS 1700 HOBSON RD
13F144176 13:45:03 911 HANG UP 2700 PAULDING RD E
13F144177 13:52:07 43,62 2400 HANNA ST S
13F144180 13:52:17 17 MOTOR CHECK 1200 OAK TRAIL CT
13F144188 13:53:12 17 MOTOR CHECK 200 MARCIEL DR
13F144181 14:10:22 51 THEFT 3800 SUPERIOR RIDGE DR
13F144182 14:11:27 30 TRAFFIC STOP 4300 LIMA RD & COLISEUM BLVD W
13F144183 14:12:40 40A AUDIBLE 200 REXFORD DR
13F144184 14:13:53 66V MENTAL VIOL 800 MILDRED AVE
13F144187 14:16:57 51 THEFT 600 COLISEUM BLVD E
13F144185 14:19:52 30 TRAFFIC STOP 800 COLISEUM BLVD E & CLINTON ST N
13F144192 14:20:37 11C CAGE CAR 200 PETTIT AVE E
13F144186 14:21:41 33,34 2200 SPY RUN AVE & STATE BLVD E
13F144190 14:24:36 66 MENTALLY ILL 900 WASHINGTON BLVD W
13F144189 14:24:45 102 THREATS 400 WASHINGTON BLVD E
13F144191 14:29:31 43 DISTURBANCE 2800 STATE BLVD E
13F144201 14:31:07 50 BURGLARY 3500 INDIANA AVE
13F144193 14:32:54 65A SUICIDE ATT 600 HUFFMAN ST
13F144194 14:37:49 101 OPEN DOOR 900 DREXEL AVE
13F144195 14:40:25 25HS HIT SKIP 200 PAULDING RD W
13F144197 14:42:06 40P PANIC ALARM 200 BERRY ST E
13F144198 14:46:19 16V PICKUP VID 00 MAIN ST E
13F144199 14:50:01 129 6000 ALLENDALE CT
13F144202 14:52:22 62 PARTY ARMED 1900 WALLEN RD W
13F144204 14:52:31 25 PD ACCIDENT 600 CLINTON ST S & MAIN ST E
13F144256 14:54:01 63 CONTACT 2400 CASS ST
13F144206 14:55:07 103 UNWANTED 900 WASHINGTON BLVD E
13F144203 14:55:15 129 3600 THREE OAKS DR
13F144205 14:56:41 38 LOST/STOLEN 3100 WELLS ST
13F144230 15:04:22 109 DUMPING 1100 LEWIS ST E
13F144217 15:06:50 11C CAGE CAR 00 MAIN ST E
13F144207 15:07:18 27 RECKLESS DRI 800 STATE BLVD W & SHERMAN BLVD
13F144226 15:09:48 51 THEFT 6300 STATE BLVD E
13F144208 15:10:00 17 MOTOR CHECK 800 COLISEUM BLVD E
13F144210 15:13:45 22I JUV INVEST 1400 LAKE AVE & DELTA BLVD
13F144214 15:15:31 66 MENTALLY ILL 300 BERRY ST W
13F144211 15:20:32 48 SUSPICIOUS 10400 MAYSVILLE RD
13F144212 15:22:06 96JO 3200 ST JOE CENTER RD
13F144213 15:24:41 25 PD ACCIDENT DUPONT RD W
13F144215 15:27:30 63 CONTACT 1200 FOREST AVE
13F144219 15:29:33 61 RAPE 6000 RED OAK DR
13F144224 15:32:24 17 MOTOR CHECK 2400 JEFFERSON BLVD W
13F144216 15:32:37 47 REMOVE ITEMS 900 APPLEWOOD RD
13F144218 15:34:56 30 TRAFFIC STOP 10200 MAYSVILLE RD
13F144220 15:37:51 50 BURGLARY 4800 JEFFERSON BLVD W
13F144221 15:39:21 40 ALARM 9400 WHITE SHELL DR
13F144223 15:40:35 42 INTOX PERSON 200 MAIN ST W
13F144222 15:41:13 56 MOLESTING 1200 HIGH ST
13F144225 15:48:05 33,34 100 FERNHILL AVE W & LIMA RD
13F144227 15:51:01 102 THREATS 00 MAIN ST E
13F144229 15:51:23 15 ASSIST 3300 COLISEUM BLVD W
13F144228 15:52:12 25 PD ACCIDENT 600 STATE BLVD W & MERIDIAN ST
13F144231 15:59:53 43 DISTURBANCE 1300 TAYLOR ST
13F144247 16:00:11 17 MOTOR CHECK 4900 WERLING DR
13F144232 16:01:56 43 DISTURBANCE 700 LEXINGTON AVE & TACOMA AVE
13F144234 16:02:57 25 PD ACCIDENT 600 LEWIS ST E & HANNA ST S
13F144233 16:03:40 1 MEET 1500 WELLS ST
13F144235 16:05:04 43 DISTURBANCE 7500 SOUTHTOWN XING
13F144280 16:09:24 22I JUV INVEST 3700 TRACE WAY
13F144236 16:10:24 40A AUDIBLE 6200 TOLBERT CT
13F144238 16:10:27 911 HANG UP 1100 FRANCIS ST
13F144244 16:10:57 45 NEIGHBORHOOD 1100 ONEIDA ST
13F144237 16:11:32 83 INFO REPORT 4000 INDIANA AVE
13F144240 16:14:12 911 HANG UP 1200 WINTER ST & LEWIS ST E
13F144239 16:15:25 48 SUSPICIOUS 6900 OLD TRAIL RD
13F144298 16:15:40 102 THREATS 100 DUNBAR LN
13F144310 16:17:38 50 BURGLARY 1900 CHARTWELL DR
13F144241 16:18:58 51 THEFT 6400 SUNLAND DR
13F144242 16:19:52 51 THEFT 500 FULTON ST & SUPERIOR ST W
13F144243 16:20:26 911 HANG UP 800 MADISON ST
13F144248 16:21:16 17 MOTOR CHECK 8600 RAIL FENCE RD
13F144250 16:21:55 50 BURGLARY 2400 TRENTMAN AVE
13F144245 16:22:41 39R STOLEN RECO 3900 HOLTON AVE & RUDISILL BLVD E
13F144246 16:23:54 30 TRAFFIC STOP 2100 ARDMORE AVE & TAYLOR ST
13F144249 16:26:59 25 PD ACCIDENT 3700 MEDA PASS
13F144252 16:29:33 25 PD ACCIDENT 4400 PARNELL AVE & CALIFORNIA RD E
13F144251 16:29:54 102 THREATS 00 MAIN ST E
13F144254 16:30:18 911 HANG UP 7600 KERN VALLEY DR
13F144253 16:34:42 EMS 1400 ST JOSEPH BLVD
13F144259 16:35:08 911 HANG UP 9800 LIMA RD
13F144258 16:37:03 65T SUICIDE THR 8500 CROSIER LN
13F144257 16:38:07 25 PD ACCIDENT 200 MAIN ST E & BARR ST S
13F144262 16:38:08 911 HANG UP 1100 MCCULLOCH ST
13F144299 16:38:20 22I JUV INVEST 3200 RAYMOND AVE
13F144260 16:40:08 30 TRAFFIC STOP 4000 COUNTRY CLUB RD
13F144261 16:40:23 16V PICKUP VID 00 MAIN ST E
13F144263 16:42:33 911 HANG UP 7900 DECATUR RD
13F144264 16:43:04 40H HOLDUP ALRM 3100 BROADWAY
13F144267 16:47:14 46,96 3300 LILLIE ST
13F144265 16:48:47 30 TRAFFIC STOP 3800 TAYLOR ST
13F144266 16:49:09 26 PI ACCIDENT 3900 WAYNE TRACE & DIPLOMAT DR
13F144268 16:53:35 30 TRAFFIC STOP 4100 LIMA RD
13F144269 16:57:15 911 HANG UP 800 JEFFERSON BLVD E
13F144270 17:01:07 16V PICKUP VID 00 MAIN ST E
13F144275 17:03:50 47 REMOVE ITEMS 9800 DUPONT LAKES DR
13F144271 17:04:28 24 MISSING PERS 3800 WENONAH LN
13F144272 17:06:45 HARASSMENT 400 WILLIAMS ST W
13F144273 17:07:52 129 4500 MORNING WIND PL
13F144274 17:09:59 101 OPEN DOOR 1100 MCCULLOCH ST
13F144276 17:14:26 51,35 1000 COLISEUM BLVD N
13F144294 17:15:38 50 BURGLARY 2500 SCHELE AVE
13F144278 17:16:34 25 PD ACCIDENT 1900 CRESCENT AVE
13F144277 17:17:57 30 TRAFFIC STOP 2400 GOSHEN RD & INDEPENDENCE DR
13F144279 17:19:18 46 DOMESTIC 2000 CARTERTON DR
13F144282 17:20:20 44 NUISANCE 1500 ELMROW DR
13F144290 17:20:42 37 PARKING VIOL 600 TENNESSEE AVE
13F144281 17:20:56 911 HANG UP 1600 DIRECTORS ROW
13F144283 17:22:10 25 PD ACCIDENT 2700 HOMESTEAD RD & COVINGTON RD
13F144284 17:23:43 30 TRAFFIC STOP 200 RUDISILL BLVD E
13F144293 17:25:20 99 NARCOTICS 1100 MONROE ST S
13F144285 17:27:13 56 MOLESTING 10500 CHERRY CREEK RD
13F144287 17:29:01 25 PD ACCIDENT 1000 COLISEUM BLVD E & PARNELL AVE
13F144286 17:29:54 25 PD ACCIDENT 3700 ILLINOIS RD & HILLEGAS RD S
13F144288 17:31:01 103 UNWANTED 3000 GOSHEN RD
13F144289 17:43:49 911 HANG UP 1100 MCCULLOCH ST
13F144296 17:50:01 11C CAGE CAR 10400 MAYSVILLE RD
13F144295 17:50:18 51 THEFT 6700 RAMBLEWOOD DR
13F144291 17:52:45 61 RAPE 00 MAIN ST E
13F144292 17:53:28 51 THEFT 3700 SOUTHWAYNE AVE
13F144300 17:57:32 33J LOCKED OUT 11200 CHESTNUT RIDGE CT
13F144297 18:01:33 66V MENTAL VIOL 7100 HICKORY CREEK DR
13F144348 18:02:15 57 STRONG ARM 5900 BUNT DR
13F144302 18:05:47 911 HANG UP 6600 MONARCH DR
13F144308 18:07:04 17 MOTOR CHECK 3100 MCDONALD ST
13F144301 18:07:38 911 HANG UP 2000 CARTERTON DR
13F144303 18:11:44 40A AUDIBLE 3500 PLAZA DR
13F144304 18:13:28 66V MENTAL VIOL 2100 SPRINGFIELD AVE
13F144305 18:13:33 34 TRAFF HAZARD 31100 I 69 NB
13F144306 18:16:52 51 THEFT 500 FOURTH ST W
13F144307 18:17:03 63 CONTACT 3200 CLINTON CT
13F144309 18:22:05 EMS 6500 ST JOE RD
13F144311 18:24:09 911 HANG UP 4800 COLDWATER RD
13F144312 18:24:50 33J LOCKED OUT 300 COLISEUM BLVD W
13F144313 18:28:12 30 TRAFFIC STOP 3100 LAFAYETTE ST S & DALMAN AVE
13F144314 18:33:39 43 DISTURBANCE 3700 ROBINWOOD DR
13F144315 18:35:15 33,34 6900 DUPONT RD W & JOHNSON RD
13F144319 18:40:11 48,36 2100 SEDDLEMEYER AVE
13F144316 18:41:07 96JO 6000 SOUTHCREST RD
13F144320 18:43:51 46 DOMESTIC 7900 DECATUR RD
13F144317 18:45:15 HARASSMENT 6300 SHELL DR
13F144318 18:45:36 43 DISTURBANCE 900 MADISON ST
13F144322 18:50:11 40ATM ATM ALARM 9800 LIMA RD
13F144321 18:50:16 48 SUSPICIOUS 1800 CALHOUN ST S
13F144343 18:51:10 44LM 400 MASTERSON AVE E
13F144338 18:56:46 44LM 3600 CENTRAL DR
13F144336 18:56:58 63 CONTACT 2100 EDEN ST
13F144324 18:59:15 11C CAGE CAR 4200 COLDWATER RD
13F144323 18:59:39 911 HANG UP 5900 THOREAU AVE
13F144326 19:04:46 911 HANG UP 4800 NORTHCREST DR
13F144325 19:05:27 46,96 3200 DIPLOMAT DR
13F144327 19:10:59 911 HANG UP 4300 AVONDALE DR
13F144329 19:12:44 911 HANG UP 100 FOSTER PKWY E
13F144328 19:13:58 11C CAGE CAR 1400 APPLE GLEN BLVD
13F144330 19:16:24 25,86 1200 LARCH LN
13F144346 19:20:17 63 CONTACT 2400 OLIVER ST
13F144335 19:20:38 99 NARCOTICS 100 MCKINNIE AVE
13F144331 19:23:39 27 RECKLESS DRI 5300 DECATUR RD
13F144333 19:26:29 24 MISSING PERS 5000 IVY BROOK DR
13F144334 19:29:30 14S SERVING WAR 7500 SOUTHTOWN XING
13F144337 19:36:36 16V PICKUP VID 00 MAIN ST E
13F144339 19:39:23 16V PICKUP VID 00 MAIN ST E
13F144341 19:40:31 11C CAGE CAR 1100 STATE BLVD W
13F144340 19:40:39 25 PD ACCIDENT 4100 BLUFFTON RD & ENGLE RD
13F144342 19:42:39 911 HANG UP 4400 SMITH ST
13F144344 19:44:25 43 DISTURBANCE 2100 BROADWAY
13F144345 19:46:20 52 SHOPLIFTER 1500 WELLS ST
13F144347 19:47:35 102,TX THREATS 11900 EAGLE CREEK PL
13F144350 19:53:57 911 HANG UP 4200 ANTHONY BLVD S
13F144349 19:56:01 40I INTRUSION 3100 BROOKLYN AVE
13F144352 19:57:50 27 RECKLESS DRI 5300 COLDWATER RD
13F144351 19:58:21 33,34 4900 ST JOE RD & BROYLES BLVD N
13F144353 20:02:44 43 DISTURBANCE 1000 FAYETTE DR
13F144354 20:05:15 30 TRAFFIC STOP 100 DEWALD ST E & CALHOUN ST S
13F144365 20:05:28 1 MEET 1200 WASHINGTON BLVD W
13F144355 20:05:29 30 TRAFFIC STOP 3600 BASS RD & FALL CREEK PKWY
13F144356 20:08:19 27 RECKLESS DRI 300 COOK RD E & COLDWATER RD
13F144357 20:09:13 48,36 3300 COLISEUM BLVD W
13F144359 20:11:57 27 RECKLESS DRI 800 COLISEUM BLVD N
13F144358 20:12:34 48,36 3700 WEBSTER ST
13F144362 20:14:05 14 WARRANT 3400 WINTER ST
13F144360 20:14:40 103 UNWANTED 2700 PRISCILLA LN
13F144363 20:15:35 25 PD ACCIDENT 3300 ST JOE CENTER RD & ST JOE RD
13F144361 20:15:47 43 DISTURBANCE 2400 FAIRFIELD AVE
13F144364 20:17:39 40A AUDIBLE 900 COLISEUM BLVD E
13F144376 20:21:32 63 CONTACT 5700 BLISSFIELD CT
13F144367 20:24:48 102,TX THREATS 1400 GREENE ST
13F144373 20:25:23 63 CONTACT 1200 HUESTIS AVE
13F144366 20:26:32 48 SUSPICIOUS 4100 HARRISON ST S
13F144369 20:31:30 46 DOMESTIC 300 FIFTH ST
13F144372 20:32:06 46 DOMESTIC 2800 MAPLE GROVE AVE E
13F144368 20:33:57 80 CIVIL INVEST 2600 CONGRESSIONAL PKWY
13F144371 20:35:57 40A AUDIBLE 6400 GEORGETOWN NORTH BLVD
13F144370 20:38:26 30 TRAFFIC STOP 300 CREIGHTON AVE E & LAFAYETTE ST
13F144374 20:44:37 46 DOMESTIC 9800 DUPONT LAKES DR
13F144375 20:50:40 34 TRAFF HAZARD 10300 COLDWATER RD & DUPONT RD E
13F144377 20:58:11 43 DISTURBANCE 10100 LIMA RD
13F144378 21:01:08 911 HANG UP 800 MCKINNIE AVE
13F144379 21:02:51 14S SERVING WAR 2200 CURDES AVE
13F144380 21:05:34 48,36 400 JEFFERSON BLVD W & FAIRFIELD A
13F144387 21:07:47 33,34 3000 ST JOE CENTER RD
13F144381 21:11:44 30 TRAFFIC STOP 3600 BOWSER AVE & GRIER ST
13F144395 21:12:19 48 SUSPICIOUS 600 THIRD ST
13F144382 21:14:02 43 DISTURBANCE 600 TENNESSEE AVE
13F144383 21:16:49 911 HANG UP 1300 GREENE ST
13F144384 21:17:59 48,36 2400 FAIRFIELD AVE
13F144385 21:20:37 43 DISTURBANCE 4200 ROBINWOOD DR
13F144386 21:21:47 55 FIGHT 1400 ONEIDA ST
13F144388 21:26:16 46 DOMESTIC 100 COUNTRY FOREST DR
13F144389 21:33:40 23,35 VAND VEH 1900 NORTHHIGHLANDS BLVD
13F144391 21:36:02 911 HANG UP 900 HAMILTON AVE
13F144390 21:39:21 30 TRAFFIC STOP 12900 COVINGTON RD & WESTHAMILTON
13F144392 21:43:16 113 SHOTS FIRED 4500 HANNA ST S
13F144394 21:44:02 911 HANG UP 3000 BELLAIRE DR
13F144393 21:44:11 101 OPEN DOOR 3800 ANTHONY BLVD S
13F144401 21:44:37 44LM 2400 PALISADE DR & RADCLIFFE CT
13F144396 21:48:16 26 PI ACCIDENT 5500 OAK FALL RD & TONKEL RD
13F144397 21:55:23 20 PROBLEM UNK 500 COLISEUM BLVD W
13F144400 21:56:18 911 HANG UP 4200 PHILIP WAY
13F144399 21:58:27 43 DISTURBANCE 7900 DECATUR RD
13F144398 21:59:17 25 PD ACCIDENT 5600 RIVER RUN TRL
13F144402 22:06:01 15 ASSIST 3900 MOUND PASS
13F144408 22:06:31 63 CONTACT 3700 INWOOD DR
13F144404 22:07:52 40A AUDIBLE 3200 COLISEUM BLVD W
13F144403 22:08:17 40 ALARM 1300 BROADWAY
13F144405 22:10:58 46,96 2300 BOWSER AVE
13F144406 22:12:15 129 4000 INDIAN HILLS DR
13F144407 22:13:00 129 4000 INDIAN HILLS DR
13F144413 22:23:41 96 BATTERY 3200 IVY LEAGUE DR
13F144410 22:26:15 46,96 4800 LILLIE ST
13F144411 22:29:36 55 FIGHT 2200 PONTIAC ST E & ABBOTT ST
13F144412 22:32:11 27 RECKLESS DRI 8200 JEFFERSON BLVD W & I 69 NB
13F144414 22:39:45 43 DISTURBANCE 6500 COVINGTON RD
13F144415 22:44:10 16V PICKUP VID 00 MAIN ST E
13F144419 22:45:27 63 CONTACT 3000 HOBSON RD
13F144416 22:46:51 30 TRAFFIC STOP 5700 WINTER ST & PAULDING RD E
13F144418 22:49:12 43 DISTURBANCE 1400 TAMERA GARDEN AVE
13F144417 22:52:35 16V PICKUP VID 00 MAIN ST E
13F144421 22:57:14 25HS HIT SKIP 5900 AURORA PL
13F144420 22:57:37 15 ASSIST 1000 MONROE ST S & JEFFERSON BLVD
13F144422 23:00:13 63 CONTACT 1300 HUGH ST
13F144424 23:05:27 911 HANG UP 2900 DREXEL AVE
13F144425 23:07:04 46 DOMESTIC 10200 JEFFERSON WAY
13F144423 23:08:03 30 TRAFFIC STOP 200 RUDISILL BLVD E & CLINTON ST S
13F144426 23:10:23 46,96 9200 LIMA RD
13F144427 23:13:56 15 ASSIST 1100 MAUMEE AVE & CHUTE ST
13F144428 23:15:38 44LM 2400 PALISADE DR
13F144429 23:16:46 48,36 3900 JEFFERSON BLVD W
13F144430 23:19:37 25 PD ACCIDENT 400 STATE BLVD E
13F144431 23:21:08 50IP BURG I/P 9900 NORTHBROOK VALLEY DR
13F144432 23:22:48 25 PD ACCIDENT 900 CLINTON ST S & WASHINGTON BLVD
13F144433 23:23:50 46 DOMESTIC 2500 OXFORD ST
13F144434 23:32:54 96 BATTERY 1200 CREIGHTON AVE E
13F144435 23:36:39 44 NUISANCE 1800 SENIOR DR
13F144436 23:43:55 50IP BURG I/P 2400 FAIRFIELD AVE
13F144437 23:50:57 63 CONTACT 2900 COLISEUM BLVD W & GOSHEN RD
13F144439 23:55:52 48 SUSPICIOUS 9900 NORTHBROOK VALLEY DR
13F144438 23:57:15 96 BATTERY 700 BROADWAY
13F144440 23:59:29 43,62 1500 WELLS ST
Amber Alert

All-America City